This is the latest recevied weather packets stored in our database for station/object K6MBY. If no packets are shown the sender has not sent any weather packets the latest 10 day(s).
| Time | Temp. | Humidity | Pressure | Rain* | Wind** | Luminosity | Snow |
|---|---|---|---|---|---|---|---|
| 1777406589 | 11.67° C | 83% | 1026.6 hPa | 0 mm | - | 692 W/m² | - |
| 1777406286 | 11.11° C | 86% | 1026.6 hPa | 0 mm | - | 624 W/m² | - |
| 1777405985 | 11.11° C | 85% | 1026.6 hPa | 0 mm | - | 607 W/m² | - |
| 1777405681 | 11.11° C | 85% | 1026.6 hPa | 0 mm | - | 600 W/m² | - |
| 1777405379 | 11.67° C | 84% | 1026.6 hPa | 0 mm | - | 566 W/m² | - |
| 1777405075 | 11.67° C | 85% | 1026.5 hPa | 0 mm | - | 632 W/m² | - |
| 1777404769 | 11.67° C | 85% | 1026.5 hPa | 0 mm | - | 594 W/m² | - |
| 1777404466 | 11.67° C | 86% | 1026.6 hPa | 0 mm | - | 576 W/m² | - |
| 1777404162 | 11.67° C | 86% | 1026.5 hPa | 0 mm | - | 535 W/m² | - |
| 1777403858 | 11.11° C | 85% | 1026.5 hPa | 0 mm | - | 464 W/m² | - |
| 1777403552 | 11.67° C | 86% | 1026.5 hPa | 0 mm | - | 418 W/m² | - |
| 1777403247 | 11.11° C | 87% | 1026.5 hPa | 0 mm | - | 409 W/m² | - |
| 1777402947 | 11.11° C | 88% | 1026.4 hPa | 0 mm | - | 380 W/m² | - |
| 1777402643 | 10.56° C | 88% | 1026.4 hPa | 0 mm | - | 366 W/m² | - |
| 1777402341 | 10.56° C | 88% | 1026.4 hPa | 0 mm | - | 319 W/m² | - |
| 1777402039 | 10.56° C | 89% | 1026.3 hPa | 0 mm | - | 304 W/m² | - |
| 1777401734 | 10.56° C | 88% | 1026.4 hPa | 0 mm | - | 308 W/m² | - |
| 1777401430 | 11.11° C | 88% | 1026.4 hPa | 0 mm | - | 330 W/m² | - |
| 1777401126 | 10.56° C | 88% | 1026.3 hPa | 0 mm | - | 299 W/m² | - |
| 1777400821 | 10.56° C | 87% | 1026.2 hPa | 0 mm | - | 334 W/m² | - |
| 1777400518 | 11.11° C | 88% | 1026.1 hPa | 0 mm | - | 304 W/m² | - |
| 1777400215 | 10.56° C | 89% | 1026.1 hPa | 0 mm | - | 325 W/m² | - |
| 1777399911 | 10.56° C | 91% | 1026 hPa | 0 mm | - | 292 W/m² | - |
| 1777399608 | 10° C | 92% | 1026 hPa | 0 mm | - | 245 W/m² | - |
| 1777399305 | 10° C | 92% | 1025.8 hPa | 0 mm | - | 223 W/m² | - |
* Rain latest hour (hover to see other rain measurements)
** Current wind speed in m/s (hover to see current wind gust speed)